Regional Weather Roundup
Issued by NWS

Home | Current Version | Previous Version | Text Only | Print | Product List | Glossary Off
Versions: 1 2 3 4 5 6 7 8 9 10 11 12 13 14 15 16 17 18 19 20 21 22 23 24 25 26 27 28 29 30 31 32 33 34 35 36 37 38 39 40 41 42 43 44 45 46 47 48 49 50

000
ASUS43 KMKX 030811
RWRWI

WISCONSIN REGIONAL WEATHER ROUNDUP
NATIONAL WEATHER SERVICE MILWAUKEE/SULLIVAN WI
300 AM CDT MON AUG 03 2015

NOTE: "FAIR" INDICATES FEW OR NO CLOUDS BELOW 12,000 FEET WITH NO
SIGNIFICANT WEATHER AND/OR OBSTRUCTIONS TO VISIBILITY.

WIZ001-002-006>008-014>016-023>028-030900-
NORTHWEST WISCONSIN

CITY           SKY/WX    TMP DP  RH WIND       PRES   REMARKS
SUPERIOR ARPT  CLEAR     55  48  76 SW8       29.79S
ASHLAND        CLOUDY    58  51  78 SW6       29.77S
HAYWARD        CLEAR     53  47  79 S5        29.81S
SIREN          CLEAR     55  47  75 W3        29.84S
CUMBERLAND     CLEAR     52  46  82 W8        29.84S
RICE LAKE      CLEAR     54  48  79 W5        29.85S
CHETEK         CLEAR     58  48  69 W5        29.83S
LADYSMITH      CLEAR     58  49  71 W6        29.83S
EAU CLAIRE     CLEAR     57  47  69 SW3       29.83R
MENOMONIE      CLEAR     58  51  76 SW6       29.84S
NEW RICHMOND   CLEAR     54  49  82 W3        29.86S
OSCEOLA        CLEAR     54  53  97 CALM      29.88S
$$

WIZ003>005-009-010-017-018-030900-
NORTH CENTRAL WISCONSIN

CITY           SKY/WX    TMP DP  RH WIND       PRES   REMARKS
MANITOWISH WTR CLOUDY    55  51  86 CALM      29.79R
ARBOR VITAE    CLOUDY    59  52  77 CALM      29.79S
WOODRUFF       CLOUDY    59  52  77 CALM      29.79S
RHINELANDER    CLOUDY    57  52  83 W7        29.79S
EAGLE RIVER    CLOUDY    57  49  74 W5        29.78R
LAND O LAKES   CLOUDY    59  48  66 NW7       29.78R
PHILLIPS       CLOUDY    56  51  85 CALM      29.80S
TOMAHAWK       MOCLDY    53  50  90 CALM      29.80S
MEDFORD        CLEAR     55  51  86 W6        29.81S
MERRILL        NOT AVBL
$$

WIZ029-030-035-036-043>047-030900-
CENTRAL WISCONSIN

CITY           SKY/WX    TMP DP  RH WIND       PRES   REMARKS
WAUSAU         CLEAR     61  53  75 NW10      29.78S
MOSINEE        CLEAR     59  54  82 W8        29.80S
MARSHFIELD     CLEAR     58  51  78 NW8       29.81S
STEVENS POINT  CLEAR     60  55  82 W5        29.79F
WAUPACA        CLEAR     65  55  70 W5        29.77F
WAUTOMA        PTCLDY    63  56  78 NW7       29.79R
WISC RAPIDS    CLEAR     60  54  80 NW7       29.81S
CAMP DOUGLAS   CLEAR     58  56  94 NW8       29.81R
$$

WIZ011>013-019>022-031-037>040-048>050-030900-
NORTHEAST WISCONSIN

CITY           SKY/WX    TMP DP  RH WIND       PRES   REMARKS
ANTIGO         CLEAR     55  52  90 W7        29.79S
SHAWANO        CLEAR     61  57  86 W6        29.76S
OCONTO         PTCLDY    58  58 100 W5        29.73R
STURGEON BAY   CLEAR     63  55  77 W8        29.74R
GREEN BAY      MOCLDY    62  59  90 NW8       29.75R
MANITOWOC      CLEAR     64  60  87 MISG      29.74R
APPLETON       MOCLDY    61  54  77 NW8       29.77R
CLINTONVILLE   PTCLDY    61  54  77 NW7       29.76S
OSHKOSH        CLEAR     63  57  81 W7        29.76R
$$

WIZ032>034-041-042-053>061-030900-
SOUTHWEST WISCONSIN

CITY           SKY/WX    TMP DP  RH WIND       PRES   REMARKS
LA CROSSE      CLEAR     64  52  64 N5        29.83R
SPARTA         CLEAR     58  49  72 CALM      29.83S
VIROQUA        CLEAR     62  50  66 NW5       29.85R
BOSCOBEL       CLEAR     69  55  60 N3        29.83R
PRAIRIE DU CHI CLEAR     67  57  70 CALM      29.83R
PLATTEVILLE    CLEAR     68  60  74 N8        29.82R
$$

WIZ056-057-062-063-064-067-068-030900-
SOUTH CENTRAL WISCONSIN

CITY           SKY/WX    TMP DP  RH WIND       PRES   REMARKS
REEDSBURG      CLEAR     63  56  79 SW5       29.81R
BARABOO/DELLS  CLEAR     64  55  70 NW5       29.80S
LONE ROCK      CLEAR     69  55  60 NW7       29.82R
MINERAL POINT  CLEAR     68  57  68 N7        29.82R
MADISON        PTCLDY    66  58  75 CALM      29.79R
MIDDLETON      PTCLDY    66  58  77 CALM      29.80S
WATERTOWN      CLOUDY    64  64 100 CALM      29.78R
MONROE         MOCLDY    70  59  68 N9        29.80R
JANESVILLE     CLEAR     66  61  82 NW5       29.77R
$$

WIZ051-052-058>065-066-070>072-030900-
SOUTHEAST WISCONSIN

CITY           SKY/WX    TMP DP  RH WIND       PRES   REMARKS
MILWAUKEE      PTCLDY    67  58  72 NW6       29.74S
WAUKESHA       PTCLDY    63  59  88 W8        29.77S
MILWAUKEE/TIMM CLEAR     63  57  82 CALM      29.76S
RACINE         CLEAR     65  60  84 W6        29.76S
BURLINGTON     CLEAR     59  57  93 NW3       29.76S
KENOSHA        CLEAR     63  61  93 W3        29.75S
FOND DU LAC    CLEAR     63  58  83 NW7       29.77R
SHEBOYGAN      PTCLDY    64  61  90 NW6       29.74S
WEST BEND      PTCLDY    61  59  94 CALM      29.75F FOG
JUNEAU         CLEAR     63  58  85 CALM      29.79R
$$

LSZ147-162-030900-
LAKE SUPERIOR

STATION/POSITION TIME  TEMP    WIND        PRES    WAVE
                       AIR SEA DIR/SP/G            HT/PER
                 (UTC) (F)     (DEG/KT/KT) (MB)    (FT/S)
W MID LAKE BUOY  0750   58 55  260/ 10/ 12 1006.0R   1/ 3
DEVILS ISLAND    0800   60     270/ 11/ 12 1007.1F
PORT WING        0700   61     150/  1/  2 1008.1S
SAXON HARBOR     0700   62                 1007.5S
$$

LMZ867-665-643>646-030900-
LAKE MICHIGAN

STATION/POSITION TIME  TEMP    WIND        PRES    WAVE
                       AIR SEA DIR/SP/G            HT/PER
                 (UTC) (F)     (DEG/KT/KT) (MB)    (FT/S)
CHAMBERS ISLAND  0700   65     250/  4/  9 1005.8
S GREEN BAY BUOY 0800   63 63  270/ 10/ 12 1008.1R
N MID LAKE BUOY  0750   67 68  280/ 14/ 16 1004.4R   2/ 5
NORTHPORT PIER   0700   65     270/  4/  7 1005.4R
ALGOMA LAKESHORE 0742             CALM       N/A
KEWAUNEE LAKESHO 0700   63     290/  4/  5 1005.8R
SHEBOYGAN LAKESH 0800   66     290/ 10/ 11 1006.8F
PORT WASHINGTON  0700   66     280/  5/  7 1007.8S
ATWATER BUOY     0800   60 56  360/  4/  6 1008.7R
MILWAUKEE LAKESH 0700   70     310/  4/  5   N/A
KENOSHA   LAKESH 0800   69     270/  9/ 12 1006.8F
$$

TC  - TEMPERATURE IN CELSIUS
VSB - VISIBILITY IN STATUTE MILES
WCI - WIND CHILL INDEX
HX  - HEAT INDEX



USA.gov is the U.S. government's official web portal to all federal, state and local government web resources and services.